Year,Month,Day,Hour,Minute,Value (Times are PST for temperature in C)
2014,03,02,00,00,1.70
2014,03,02,00,01,1.70
2014,03,02,00,02,1.70
2014,03,02,00,03,1.70
2014,03,02,00,04,1.70
2014,03,02,00,05,1.70
2014,03,02,00,06,1.70
2014,03,02,00,07,1.70
2014,03,02,00,08,1.70
2014,03,02,00,09,1.70
2014,03,02,00,10,1.70
2014,03,02,00,11,1.70
2014,03,02,00,12,1.70
2014,03,02,00,13,1.60
2014,03,02,00,14,1.60
2014,03,02,00,15,1.60
2014,03,02,00,16,1.60
2014,03,02,00,17,1.60
2014,03,02,00,18,1.60
2014,03,02,00,19,1.60
2014,03,02,00,20,1.60
2014,03,02,00,21,1.60
2014,03,02,00,22,1.60
2014,03,02,00,23,1.50
2014,03,02,00,24,1.50
2014,03,02,00,25,1.50
2014,03,02,00,26,1.50
2014,03,02,00,27,1.50
2014,03,02,00,28,1.50
2014,03,02,00,29,1.50
2014,03,02,00,30,1.40
2014,03,02,00,31,1.40
2014,03,02,00,32,1.40
2014,03,02,00,33,1.40
2014,03,02,00,34,1.40
2014,03,02,00,35,1.40
2014,03,02,00,36,1.40
2014,03,02,00,37,1.30
2014,03,02,00,38,1.30
2014,03,02,00,39,1.30
2014,03,02,00,40,1.30
2014,03,02,00,41,1.30
2014,03,02,00,42,1.30
2014,03,02,00,43,1.30
2014,03,02,00,44,1.30
2014,03,02,00,45,1.30
2014,03,02,00,46,1.30
2014,03,02,00,47,1.30
2014,03,02,00,48,1.20
2014,03,02,00,49,1.20
2014,03,02,00,50,1.20
2014,03,02,00,51,1.20
2014,03,02,00,52,1.20
2014,03,02,00,53,1.20
2014,03,02,00,54,1.20
2014,03,02,00,55,1.20
2014,03,02,00,56,1.20
2014,03,02,00,57,1.20
2014,03,02,00,58,1.20
2014,03,02,00,59,1.20
2014,03,02,01,00,1.20
2014,03,02,01,01,1.10
2014,03,02,01,02,1.10
2014,03,02,01,03,1.10
2014,03,02,01,04,1.10
2014,03,02,01,05,1.10
2014,03,02,01,06,1.10
2014,03,02,01,07,1.10
2014,03,02,01,08,1.10
2014,03,02,01,09,1.10
2014,03,02,01,10,1.10
2014,03,02,01,11,1.10
2014,03,02,01,12,1.10
2014,03,02,01,13,1.10
2014,03,02,01,14,1.10
2014,03,02,01,15,1.10
2014,03,02,01,16,1.10
2014,03,02,01,17,1.00
2014,03,02,01,18,1.00
2014,03,02,01,19,1.00
2014,03,02,01,20,1.00
2014,03,02,01,21,1.00
2014,03,02,01,22,1.00
2014,03,02,01,23,1.00
2014,03,02,01,24,1.00
2014,03,02,01,25,1.00
2014,03,02,01,26,1.00
2014,03,02,01,27,0.90
2014,03,02,01,28,0.90
2014,03,02,01,29,0.90
2014,03,02,01,30,0.90
2014,03,02,01,31,0.90
2014,03,02,01,32,0.90
2014,03,02,01,33,0.90
2014,03,02,01,34,0.90
2014,03,02,01,35,0.90
2014,03,02,01,36,0.90
2014,03,02,01,37,0.90
2014,03,02,01,38,0.90
2014,03,02,01,39,0.90
2014,03,02,01,40,0.90
2014,03,02,01,41,0.90
2014,03,02,01,42,0.90
2014,03,02,01,43,0.90
2014,03,02,01,44,0.90
2014,03,02,01,45,0.90
2014,03,02,01,46,0.90
2014,03,02,01,47,0.90
2014,03,02,01,48,0.90
2014,03,02,01,49,0.90
2014,03,02,01,50,0.90
2014,03,02,01,51,0.90
2014,03,02,01,52,0.90
2014,03,02,01,53,0.90
2014,03,02,01,54,0.90
2014,03,02,01,55,0.90
2014,03,02,01,56,0.90
2014,03,02,01,57,0.90
2014,03,02,01,58,0.90
2014,03,02,01,59,0.90
2014,03,02,02,00,0.90
2014,03,02,02,01,0.90
2014,03,02,02,02,0.90
2014,03,02,02,03,0.90
2014,03,02,02,04,0.90
2014,03,02,02,05,0.90
2014,03,02,02,06,0.90
2014,03,02,02,07,0.90
2014,03,02,02,08,0.90
2014,03,02,02,09,0.90
2014,03,02,02,10,1.00
2014,03,02,02,11,1.00
2014,03,02,02,12,1.10
2014,03,02,02,13,1.10
2014,03,02,02,14,1.10
2014,03,02,02,15,1.20
2014,03,02,02,16,1.20
2014,03,02,02,17,1.20
2014,03,02,02,18,1.20
2014,03,02,02,19,1.30
2014,03,02,02,20,1.30
2014,03,02,02,21,1.30
2014,03,02,02,22,1.30
2014,03,02,02,23,1.30
2014,03,02,02,24,1.40
2014,03,02,02,25,1.40
2014,03,02,02,26,1.50
2014,03,02,02,27,1.50
2014,03,02,02,28,1.60
2014,03,02,02,29,1.60
2014,03,02,02,30,1.60
2014,03,02,02,31,1.70
2014,03,02,02,32,1.70
2014,03,02,02,33,1.70
2014,03,02,02,34,1.80
2014,03,02,02,35,1.80
2014,03,02,02,36,1.80
2014,03,02,02,37,1.90
2014,03,02,02,38,1.90
2014,03,02,02,39,1.90
2014,03,02,02,40,1.90
2014,03,02,02,41,1.90
2014,03,02,02,42,1.90
2014,03,02,02,43,1.90
2014,03,02,02,44,1.90
2014,03,02,02,45,1.90
2014,03,02,02,46,1.90
2014,03,02,02,47,1.90
2014,03,02,02,48,1.90
2014,03,02,02,49,1.90
2014,03,02,02,50,1.90
2014,03,02,02,51,1.90
2014,03,02,02,52,1.90
2014,03,02,02,53,1.90
2014,03,02,02,54,1.90
2014,03,02,02,55,1.90
2014,03,02,02,56,1.90
2014,03,02,02,57,1.90
2014,03,02,02,58,1.90
2014,03,02,02,59,1.90
2014,03,02,03,00,1.90
2014,03,02,03,01,1.90
2014,03,02,03,02,1.90
2014,03,02,03,03,1.90
2014,03,02,03,04,1.90
2014,03,02,03,05,1.90
2014,03,02,03,06,1.90
2014,03,02,03,07,1.90
2014,03,02,03,08,1.90
2014,03,02,03,09,1.90
2014,03,02,03,10,1.90
2014,03,02,03,11,1.90
2014,03,02,03,12,1.90
2014,03,02,03,13,2.00
2014,03,02,03,14,2.00
2014,03,02,03,15,2.00
2014,03,02,03,16,2.10
2014,03,02,03,17,2.10
2014,03,02,03,18,2.10
2014,03,02,03,19,2.10
2014,03,02,03,20,2.10
2014,03,02,03,21,2.10
2014,03,02,03,22,2.10
2014,03,02,03,23,2.10
2014,03,02,03,24,2.10
2014,03,02,03,25,2.20
2014,03,02,03,26,2.20
2014,03,02,03,27,2.20
2014,03,02,03,28,2.20
2014,03,02,03,29,2.20
2014,03,02,03,30,2.20
2014,03,02,03,31,2.20
2014,03,02,03,32,2.20
2014,03,02,03,33,2.20
2014,03,02,03,34,2.20
2014,03,02,03,35,2.20
2014,03,02,03,36,2.20
2014,03,02,03,37,2.20
2014,03,02,03,38,2.20
2014,03,02,03,39,2.20
2014,03,02,03,40,2.20
2014,03,02,03,41,2.20
2014,03,02,03,42,2.20
2014,03,02,03,43,2.20
2014,03,02,03,44,2.20
2014,03,02,03,45,2.20
2014,03,02,03,46,2.20
2014,03,02,03,47,2.20
2014,03,02,03,48,2.20
2014,03,02,03,49,2.20
2014,03,02,03,50,2.20
2014,03,02,03,51,2.20
2014,03,02,03,52,2.20
2014,03,02,03,53,2.20
2014,03,02,03,54,2.20
2014,03,02,03,55,2.20
2014,03,02,03,56,2.20
2014,03,02,03,57,2.20
2014,03,02,03,58,2.20
2014,03,02,03,59,2.20
2014,03,02,04,00,2.20
2014,03,02,04,01,2.20
2014,03,02,04,02,2.20
2014,03,02,04,03,2.20
2014,03,02,04,04,2.20
2014,03,02,04,05,2.20
2014,03,02,04,06,2.20
2014,03,02,04,07,2.20
2014,03,02,04,08,2.20
2014,03,02,04,09,2.20
2014,03,02,04,10,2.20
2014,03,02,04,11,2.20
2014,03,02,04,12,2.30
2014,03,02,04,13,2.30
2014,03,02,04,14,2.30
2014,03,02,04,15,2.30
2014,03,02,04,16,2.30
2014,03,02,04,17,2.30
2014,03,02,04,18,2.30
2014,03,02,04,19,2.30
2014,03,02,04,20,2.30
2014,03,02,04,21,2.30
2014,03,02,04,22,2.30
2014,03,02,04,23,2.30
2014,03,02,04,24,2.30
2014,03,02,04,25,2.30
2014,03,02,04,26,2.30
2014,03,02,04,27,2.30
2014,03,02,04,28,2.30
2014,03,02,04,29,2.30
2014,03,02,04,30,2.30
2014,03,02,04,31,2.30
2014,03,02,04,32,2.30
2014,03,02,04,33,2.30
2014,03,02,04,34,2.30
2014,03,02,04,35,2.30
2014,03,02,04,36,2.30
2014,03,02,04,37,2.20
2014,03,02,04,38,2.20
2014,03,02,04,39,2.20
2014,03,02,04,40,2.20
2014,03,02,04,41,2.20
2014,03,02,04,42,2.20
2014,03,02,04,43,2.20
2014,03,02,04,44,2.20
2014,03,02,04,45,2.20
2014,03,02,04,46,2.20
2014,03,02,04,47,2.20
2014,03,02,04,48,2.20
2014,03,02,04,49,2.20
2014,03,02,04,50,2.20
2014,03,02,04,51,2.20
2014,03,02,04,52,2.20
2014,03,02,04,53,2.20
2014,03,02,04,54,2.20
2014,03,02,04,55,2.20
2014,03,02,04,56,2.20
2014,03,02,04,57,2.20
2014,03,02,04,58,2.20
2014,03,02,04,59,2.20
2014,03,02,05,00,2.20
2014,03,02,05,01,2.20
2014,03,02,05,02,2.20
2014,03,02,05,03,2.20
2014,03,02,05,04,2.20
2014,03,02,05,05,2.20
2014,03,02,05,06,2.20
2014,03,02,05,07,2.20
2014,03,02,05,08,2.20
2014,03,02,05,09,2.20
2014,03,02,05,10,2.20
2014,03,02,05,11,2.20
2014,03,02,05,12,2.20
2014,03,02,05,13,2.20
2014,03,02,05,14,2.20
2014,03,02,05,15,2.20
2014,03,02,05,16,2.20
2014,03,02,05,17,2.20
2014,03,02,05,18,2.10
2014,03,02,05,19,2.10
2014,03,02,05,20,2.10
2014,03,02,05,21,2.10
2014,03,02,05,22,2.10
2014,03,02,05,23,2.10
2014,03,02,05,24,2.10
2014,03,02,05,25,2.10
2014,03,02,05,26,2.00
2014,03,02,05,27,2.00
2014,03,02,05,28,2.00
2014,03,02,05,29,2.00
2014,03,02,05,30,2.00
2014,03,02,05,31,2.00
2014,03,02,05,32,2.00
2014,03,02,05,33,1.90
2014,03,02,05,34,1.90
2014,03,02,05,35,1.90
2014,03,02,05,36,1.90
2014,03,02,05,37,1.90
2014,03,02,05,38,1.90
2014,03,02,05,39,1.90
2014,03,02,05,40,1.90
2014,03,02,05,41,1.90
2014,03,02,05,42,1.90
2014,03,02,05,43,1.90
2014,03,02,05,44,1.90
2014,03,02,05,45,1.90
2014,03,02,05,46,1.90
2014,03,02,05,47,1.90
2014,03,02,05,48,1.90
2014,03,02,05,49,1.90
2014,03,02,05,50,1.90
2014,03,02,05,51,1.80
2014,03,02,05,52,1.80
2014,03,02,05,53,1.80
2014,03,02,05,54,1.80
2014,03,02,05,55,1.80
2014,03,02,05,56,1.80
2014,03,02,05,57,1.80
2014,03,02,05,58,1.80
2014,03,02,05,59,1.80
2014,03,02,06,00,1.80
2014,03,02,06,01,1.80
2014,03,02,06,02,1.80
2014,03,02,06,03,1.80
2014,03,02,06,04,1.80
2014,03,02,06,05,1.80
2014,03,02,06,06,1.80
2014,03,02,06,07,1.80
2014,03,02,06,08,1.80
2014,03,02,06,09,1.80
2014,03,02,06,10,1.70
2014,03,02,06,11,1.70
2014,03,02,06,12,1.70
2014,03,02,06,13,1.70
2014,03,02,06,14,1.70
2014,03,02,06,15,1.70
2014,03,02,06,16,1.70
2014,03,02,06,17,1.70
2014,03,02,06,18,1.70
2014,03,02,06,19,1.70
2014,03,02,06,20,1.60
2014,03,02,06,21,1.60
2014,03,02,06,22,1.60
2014,03,02,06,23,1.60
2014,03,02,06,24,1.60
2014,03,02,06,25,1.60
2014,03,02,06,26,1.60
2014,03,02,06,27,1.60
2014,03,02,06,28,1.60
2014,03,02,06,29,1.50
2014,03,02,06,30,1.50
2014,03,02,06,31,1.50
2014,03,02,06,32,1.50
2014,03,02,06,33,1.50
2014,03,02,06,34,1.40
2014,03,02,06,35,1.40
2014,03,02,06,36,1.40
2014,03,02,06,37,1.40
2014,03,02,06,38,1.40
2014,03,02,06,39,1.40
2014,03,02,06,40,1.40
2014,03,02,06,41,1.40
2014,03,02,06,42,1.30
2014,03,02,06,43,1.30
2014,03,02,06,44,1.30
2014,03,02,06,45,1.30
2014,03,02,06,46,1.30
2014,03,02,06,47,1.30
2014,03,02,06,48,1.30
2014,03,02,06,49,1.30
2014,03,02,06,50,1.30
2014,03,02,06,51,1.20
2014,03,02,06,52,1.20
2014,03,02,06,53,1.20
2014,03,02,06,54,1.20
2014,03,02,06,55,1.20
2014,03,02,06,56,1.20
2014,03,02,06,57,1.10
2014,03,02,06,58,1.10
2014,03,02,06,59,1.10
2014,03,02,07,00,1.10
2014,03,02,07,01,1.10
2014,03,02,07,02,1.10
2014,03,02,07,03,1.00
2014,03,02,07,04,1.00
2014,03,02,07,05,1.00
2014,03,02,07,06,1.00
2014,03,02,07,07,1.00
2014,03,02,07,08,1.00
2014,03,02,07,09,1.00
2014,03,02,07,10,0.90
2014,03,02,07,11,0.90
2014,03,02,07,12,0.90
2014,03,02,07,13,0.90
2014,03,02,07,14,0.90
2014,03,02,07,15,0.90
2014,03,02,07,16,0.90
2014,03,02,07,17,0.90
2014,03,02,07,18,0.90
2014,03,02,07,19,0.90
2014,03,02,07,20,0.90
2014,03,02,07,21,0.90
2014,03,02,07,22,0.90
2014,03,02,07,23,0.90
2014,03,02,07,24,0.90
2014,03,02,07,25,0.90
2014,03,02,07,26,0.90
2014,03,02,07,27,0.90
2014,03,02,07,28,0.90
2014,03,02,07,29,0.90
2014,03,02,07,30,0.90
2014,03,02,07,31,0.80
2014,03,02,07,32,0.80
2014,03,02,07,33,0.80
2014,03,02,07,34,0.80
2014,03,02,07,35,0.80
2014,03,02,07,36,0.80
2014,03,02,07,37,0.80
2014,03,02,07,38,0.80
2014,03,02,07,39,0.80
2014,03,02,07,40,0.80
2014,03,02,07,41,0.80
2014,03,02,07,42,0.80
2014,03,02,07,43,0.80
2014,03,02,07,44,0.80
2014,03,02,07,45,0.80
2014,03,02,07,46,0.80
2014,03,02,07,47,0.80
2014,03,02,07,48,0.80
2014,03,02,07,49,0.80
2014,03,02,07,50,0.80
2014,03,02,07,51,0.90
2014,03,02,07,52,0.90
2014,03,02,07,53,0.90
2014,03,02,07,54,0.90
2014,03,02,07,55,0.90
2014,03,02,07,56,0.90
2014,03,02,07,57,0.90
2014,03,02,07,58,0.90
2014,03,02,07,59,0.90
2014,03,02,08,00,0.90
2014,03,02,08,01,0.90
2014,03,02,08,02,0.90
2014,03,02,08,03,0.90
2014,03,02,08,04,0.90
2014,03,02,08,05,0.90
2014,03,02,08,06,0.90
2014,03,02,08,07,0.90
2014,03,02,08,08,0.90
2014,03,02,08,09,0.90
2014,03,02,08,10,0.90
2014,03,02,08,11,0.90
2014,03,02,08,12,0.90
2014,03,02,08,13,0.90
2014,03,02,08,14,0.90
2014,03,02,08,15,0.90
2014,03,02,08,16,0.90
2014,03,02,08,17,0.90
2014,03,02,08,18,0.90
2014,03,02,08,19,0.90
2014,03,02,08,20,0.90
2014,03,02,08,21,0.90
2014,03,02,08,22,0.90
2014,03,02,08,23,0.90
2014,03,02,08,24,0.90
2014,03,02,08,25,0.90
2014,03,02,08,26,0.90
2014,03,02,08,27,0.90
2014,03,02,08,28,0.90
2014,03,02,08,29,0.90
2014,03,02,08,30,0.90
2014,03,02,08,31,0.90
2014,03,02,08,32,0.90
2014,03,02,08,33,0.90
2014,03,02,08,34,0.90
2014,03,02,08,35,0.90
2014,03,02,08,36,0.90
2014,03,02,08,37,0.90
2014,03,02,08,38,0.90
2014,03,02,08,39,0.90
2014,03,02,08,40,0.90
2014,03,02,08,41,0.90
2014,03,02,08,42,1.00
2014,03,02,08,43,0.90
2014,03,02,08,44,0.90
2014,03,02,08,45,0.90
2014,03,02,08,46,0.90
2014,03,02,08,47,0.90
2014,03,02,08,48,1.00
2014,03,02,08,49,1.00
2014,03,02,08,50,1.00
2014,03,02,08,51,1.00
2014,03,02,08,52,1.00
2014,03,02,08,53,1.00
2014,03,02,08,54,1.00
2014,03,02,08,55,1.00
2014,03,02,08,56,1.00
2014,03,02,08,57,1.00
2014,03,02,08,58,1.00
2014,03,02,08,59,1.00
2014,03,02,09,00,1.00
2014,03,02,09,01,1.00
2014,03,02,09,02,1.00
2014,03,02,09,03,1.00
2014,03,02,09,04,1.00
2014,03,02,09,05,1.00
2014,03,02,09,06,1.00
2014,03,02,09,07,1.00
2014,03,02,09,08,1.00
2014,03,02,09,09,1.00
2014,03,02,09,10,1.00
2014,03,02,09,11,1.00
2014,03,02,09,12,1.00
2014,03,02,09,13,1.00
2014,03,02,09,14,1.00
2014,03,02,09,15,1.00
2014,03,02,09,16,1.00
2014,03,02,09,17,1.00
2014,03,02,09,18,1.00
2014,03,02,09,19,1.00
2014,03,02,09,20,1.00
2014,03,02,09,21,1.00
2014,03,02,09,22,0.90
2014,03,02,09,23,0.90
2014,03,02,09,24,0.90
2014,03,02,09,25,0.90
2014,03,02,09,26,0.90
2014,03,02,09,27,0.90
2014,03,02,09,28,0.90
2014,03,02,09,29,0.90
2014,03,02,09,30,0.90
2014,03,02,09,31,0.90
2014,03,02,09,32,0.90
2014,03,02,09,33,0.90
2014,03,02,09,34,0.90
2014,03,02,09,35,0.90
2014,03,02,09,36,0.90
2014,03,02,09,37,0.90
2014,03,02,09,38,0.90
2014,03,02,09,39,0.90
2014,03,02,09,40,0.90
2014,03,02,09,41,0.90
2014,03,02,09,42,0.90
2014,03,02,09,43,0.90
2014,03,02,09,44,0.90
2014,03,02,09,45,0.90
2014,03,02,09,46,0.90
2014,03,02,09,47,0.90
2014,03,02,09,48,0.90
2014,03,02,09,49,0.90
2014,03,02,09,50,0.90
2014,03,02,09,51,0.90
2014,03,02,09,52,0.90
2014,03,02,09,53,0.90
2014,03,02,09,54,0.90
2014,03,02,09,55,0.90
2014,03,02,09,56,0.90
2014,03,02,09,57,0.90
2014,03,02,09,58,0.90
2014,03,02,09,59,0.90
2014,03,02,10,00,0.90
2014,03,02,10,01,0.90
2014,03,02,10,02,0.90
2014,03,02,10,03,0.90
2014,03,02,10,04,1.00
2014,03,02,10,05,1.00
2014,03,02,10,06,1.00
2014,03,02,10,07,1.00
2014,03,02,10,08,1.00
2014,03,02,10,09,1.10
2014,03,02,10,10,1.10
2014,03,02,10,11,1.10
2014,03,02,10,12,1.10
2014,03,02,10,13,1.10
2014,03,02,10,14,1.10
2014,03,02,10,15,1.20
2014,03,02,10,16,1.20
2014,03,02,10,17,1.20
2014,03,02,10,18,1.20
2014,03,02,10,19,1.20
2014,03,02,10,20,1.20
2014,03,02,10,21,1.20
2014,03,02,10,22,1.30
2014,03,02,10,23,1.30
2014,03,02,10,24,1.30
2014,03,02,10,25,1.30
2014,03,02,10,26,1.30
2014,03,02,10,27,1.30
2014,03,02,10,28,1.30
2014,03,02,10,29,1.30
2014,03,02,10,30,1.30
2014,03,02,10,31,1.40
2014,03,02,10,32,1.40
2014,03,02,10,33,1.40
2014,03,02,10,34,1.40
2014,03,02,10,35,1.40
2014,03,02,10,36,1.40
2014,03,02,10,37,1.40
2014,03,02,10,38,1.40
2014,03,02,10,39,1.40
2014,03,02,10,40,1.40
2014,03,02,10,41,1.50
2014,03,02,10,42,1.50
2014,03,02,10,43,1.50
2014,03,02,10,44,1.50
2014,03,02,10,45,1.50
2014,03,02,10,46,1.50
2014,03,02,10,47,1.50
2014,03,02,10,48,1.50
2014,03,02,10,49,1.50
2014,03,02,10,50,1.50
2014,03,02,10,51,1.50
2014,03,02,10,52,1.50
2014,03,02,10,53,1.50
2014,03,02,10,54,1.50
2014,03,02,10,55,1.50
2014,03,02,10,56,1.50
2014,03,02,10,57,1.50
2014,03,02,10,58,1.50
2014,03,02,10,59,1.50
2014,03,02,11,00,1.50
2014,03,02,11,01,1.50
2014,03,02,11,02,1.50
2014,03,02,11,03,1.50
2014,03,02,11,04,1.50
2014,03,02,11,05,1.50
2014,03,02,11,06,1.60
2014,03,02,11,07,1.50
2014,03,02,11,08,1.50
2014,03,02,11,09,1.50
2014,03,02,11,10,1.60
2014,03,02,11,11,1.60
2014,03,02,11,12,1.60
2014,03,02,11,13,1.60
2014,03,02,11,14,1.60
2014,03,02,11,15,1.60
2014,03,02,11,16,1.60
2014,03,02,11,17,1.60
2014,03,02,11,18,1.60
2014,03,02,11,19,1.60
2014,03,02,11,20,1.60
2014,03,02,11,21,1.60
2014,03,02,11,22,1.70
2014,03,02,11,23,1.70
2014,03,02,11,24,1.70
2014,03,02,11,25,1.70
2014,03,02,11,26,1.70
2014,03,02,11,27,1.70
2014,03,02,11,28,1.70
2014,03,02,11,29,1.70
2014,03,02,11,30,1.70
2014,03,02,11,31,1.70
2014,03,02,11,32,1.70
2014,03,02,11,33,1.70
2014,03,02,11,34,1.70
2014,03,02,11,35,1.70
2014,03,02,11,36,1.70
2014,03,02,11,37,1.70
2014,03,02,11,38,1.70
2014,03,02,11,39,1.80
2014,03,02,11,40,1.80
2014,03,02,11,41,1.80
2014,03,02,11,42,1.80
2014,03,02,11,43,1.80
2014,03,02,11,44,1.80
2014,03,02,11,45,1.80
2014,03,02,11,46,1.80
2014,03,02,11,47,1.80
2014,03,02,11,48,1.80
2014,03,02,11,49,1.80
2014,03,02,11,50,1.80
2014,03,02,11,51,1.80
2014,03,02,11,52,1.80
2014,03,02,11,53,1.80
2014,03,02,11,54,1.80
2014,03,02,11,55,1.90
2014,03,02,11,56,1.90
2014,03,02,11,57,1.90
2014,03,02,11,58,1.90
2014,03,02,11,59,1.90
2014,03,02,12,00,1.90
2014,03,02,12,01,1.90
2014,03,02,12,02,1.90
2014,03,02,12,03,1.90
2014,03,02,12,04,1.90
2014,03,02,12,05,2.00
2014,03,02,12,06,2.00
2014,03,02,12,07,2.00
2014,03,02,12,08,2.00
2014,03,02,12,09,2.00
2014,03,02,12,10,2.00
2014,03,02,12,11,2.00
2014,03,02,12,12,2.10
2014,03,02,12,13,2.10
2014,03,02,12,14,2.10
2014,03,02,12,15,2.10
2014,03,02,12,16,2.10
2014,03,02,12,17,2.10
2014,03,02,12,18,2.10
2014,03,02,12,19,2.10
2014,03,02,12,20,2.10
2014,03,02,12,21,2.10
2014,03,02,12,22,2.10
2014,03,02,12,23,2.10
2014,03,02,12,24,2.10
2014,03,02,12,25,2.10
2014,03,02,12,26,2.10
2014,03,02,12,27,2.10
2014,03,02,12,28,2.10
2014,03,02,12,29,2.10
2014,03,02,12,30,2.10
2014,03,02,12,31,2.10
2014,03,02,12,32,2.10
2014,03,02,12,33,2.10
2014,03,02,12,34,2.10
2014,03,02,12,35,2.10
2014,03,02,12,36,2.10
2014,03,02,12,37,2.10
2014,03,02,12,38,2.10
2014,03,02,12,39,2.10
2014,03,02,12,40,2.10
2014,03,02,12,41,2.10
2014,03,02,12,42,2.10
2014,03,02,12,43,2.10
2014,03,02,12,44,2.10
2014,03,02,12,45,2.10
2014,03,02,12,46,2.10
2014,03,02,12,47,2.10
2014,03,02,12,48,2.10
2014,03,02,12,49,2.00
2014,03,02,12,50,2.00
2014,03,02,12,51,2.00
2014,03,02,12,52,2.00
2014,03,02,12,53,2.00
2014,03,02,12,54,2.00
2014,03,02,12,55,2.00
2014,03,02,12,56,2.10
2014,03,02,12,57,2.10
2014,03,02,12,58,2.00
2014,03,02,12,59,2.10
2014,03,02,13,00,2.10
2014,03,02,13,01,2.10
2014,03,02,13,02,2.10
2014,03,02,13,03,2.10
2014,03,02,13,04,2.10
2014,03,02,13,05,2.10
2014,03,02,13,06,2.10
2014,03,02,13,07,2.10
2014,03,02,13,08,2.10
2014,03,02,13,09,2.10
2014,03,02,13,10,2.10
2014,03,02,13,11,2.10
2014,03,02,13,12,2.20
2014,03,02,13,13,2.20
2014,03,02,13,14,2.20
2014,03,02,13,15,2.20
2014,03,02,13,16,2.20
2014,03,02,13,17,2.20
2014,03,02,13,18,2.20
2014,03,02,13,19,2.20
2014,03,02,13,20,2.20
2014,03,02,13,21,2.20
2014,03,02,13,22,2.20
2014,03,02,13,23,2.30
2014,03,02,13,24,2.30
2014,03,02,13,25,2.30
2014,03,02,13,26,2.30
2014,03,02,13,27,2.30
2014,03,02,13,28,2.30
2014,03,02,13,29,2.30
2014,03,02,13,30,2.30
2014,03,02,13,31,2.30
2014,03,02,13,32,2.30
2014,03,02,13,33,2.30
2014,03,02,13,34,2.30
2014,03,02,13,35,2.30
2014,03,02,13,36,2.30
2014,03,02,13,37,2.30
2014,03,02,13,38,2.30
2014,03,02,13,39,2.40
2014,03,02,13,40,2.30
2014,03,02,13,41,2.40
2014,03,02,13,42,2.40
2014,03,02,13,43,2.40
2014,03,02,13,44,2.40
2014,03,02,13,45,2.40
2014,03,02,13,46,2.40
2014,03,02,13,47,2.40
2014,03,02,13,48,2.40
2014,03,02,13,49,2.40
2014,03,02,13,50,2.40
2014,03,02,13,51,2.40
2014,03,02,13,52,2.40
2014,03,02,13,53,2.40
2014,03,02,13,54,2.40
2014,03,02,13,55,2.40
2014,03,02,13,56,2.40
2014,03,02,13,57,2.40
2014,03,02,13,58,2.40
2014,03,02,13,59,2.40
2014,03,02,14,00,2.50
2014,03,02,14,01,2.50
2014,03,02,14,02,2.50
2014,03,02,14,03,2.50
2014,03,02,14,04,2.50
2014,03,02,14,05,2.50
2014,03,02,14,06,2.50
2014,03,02,14,07,2.50
2014,03,02,14,08,2.60
2014,03,02,14,09,2.60
2014,03,02,14,10,2.60
2014,03,02,14,11,2.60
2014,03,02,14,12,2.60
2014,03,02,14,13,2.60
2014,03,02,14,14,2.60
2014,03,02,14,15,2.60
2014,03,02,14,16,2.60
2014,03,02,14,17,2.60
2014,03,02,14,18,2.60
2014,03,02,14,19,2.70
2014,03,02,14,20,2.70
2014,03,02,14,21,2.70
2014,03,02,14,22,2.70
2014,03,02,14,23,2.70
2014,03,02,14,24,2.70
2014,03,02,14,25,2.70
2014,03,02,14,26,2.70
2014,03,02,14,27,2.70
2014,03,02,14,28,2.70
2014,03,02,14,29,2.70
2014,03,02,14,30,2.70
2014,03,02,14,31,2.70
2014,03,02,14,32,2.70
2014,03,02,14,33,2.70
2014,03,02,14,34,2.70
2014,03,02,14,35,2.70
2014,03,02,14,36,2.70
2014,03,02,14,37,2.70
2014,03,02,14,38,2.70
2014,03,02,14,39,2.70
2014,03,02,14,40,2.70
2014,03,02,14,41,2.70
2014,03,02,14,42,2.70
2014,03,02,14,43,2.70
2014,03,02,14,44,2.70
2014,03,02,14,45,2.80
2014,03,02,14,46,2.80
2014,03,02,14,47,2.70
2014,03,02,14,48,2.80
2014,03,02,14,49,2.80
2014,03,02,14,50,2.70
2014,03,02,14,51,2.70
2014,03,02,14,52,2.70
2014,03,02,14,53,2.60
2014,03,02,14,54,2.60
2014,03,02,14,55,2.50
2014,03,02,14,56,2.50
2014,03,02,14,57,2.40
2014,03,02,14,58,2.40
2014,03,02,14,59,2.40
2014,03,02,15,00,2.40
2014,03,02,15,01,2.40
2014,03,02,15,02,2.40
2014,03,02,15,03,2.40
2014,03,02,15,04,2.30
2014,03,02,15,05,2.30
2014,03,02,15,06,2.30
2014,03,02,15,07,2.30
2014,03,02,15,08,2.30
2014,03,02,15,09,2.30
2014,03,02,15,10,2.30
2014,03,02,15,11,2.30
2014,03,02,15,12,2.30
2014,03,02,15,13,2.30
2014,03,02,15,14,2.40
2014,03,02,15,15,2.40
2014,03,02,15,16,2.40
2014,03,02,15,17,2.40
2014,03,02,15,18,2.40
2014,03,02,15,19,2.40
2014,03,02,15,20,2.40
2014,03,02,15,21,2.40
2014,03,02,15,22,2.40
2014,03,02,15,23,2.40
2014,03,02,15,24,2.40
2014,03,02,15,25,2.40
2014,03,02,15,26,2.40
2014,03,02,15,27,2.40
2014,03,02,15,28,2.40
2014,03,02,15,29,2.40
2014,03,02,15,30,2.40
2014,03,02,15,31,2.40
2014,03,02,15,32,2.40
2014,03,02,15,33,2.40
2014,03,02,15,34,2.40
2014,03,02,15,35,2.40
2014,03,02,15,36,2.40
2014,03,02,15,37,2.40
2014,03,02,15,38,2.40
2014,03,02,15,39,2.30
2014,03,02,15,40,2.30
2014,03,02,15,41,2.30
2014,03,02,15,42,2.30
2014,03,02,15,43,2.30
2014,03,02,15,44,2.30
2014,03,02,15,45,2.30
2014,03,02,15,46,2.30
2014,03,02,15,47,2.30
2014,03,02,15,48,2.30
2014,03,02,15,49,2.30
2014,03,02,15,50,2.30
2014,03,02,15,51,2.30
2014,03,02,15,52,2.30
2014,03,02,15,53,2.30
2014,03,02,15,54,2.30
2014,03,02,15,55,2.30
2014,03,02,15,56,2.30
2014,03,02,15,57,2.30
2014,03,02,15,58,2.30
2014,03,02,15,59,2.30
2014,03,02,16,00,2.30
2014,03,02,16,01,2.30
2014,03,02,16,02,2.30
2014,03,02,16,03,2.30
2014,03,02,16,04,2.30
2014,03,02,16,05,2.30
2014,03,02,16,06,2.30
2014,03,02,16,07,2.30
2014,03,02,16,08,2.30
2014,03,02,16,09,2.30
2014,03,02,16,10,2.30
2014,03,02,16,11,2.30
2014,03,02,16,12,2.30
2014,03,02,16,13,2.30
2014,03,02,16,14,2.30
2014,03,02,16,15,2.30
2014,03,02,16,16,2.30
2014,03,02,16,17,2.30
2014,03,02,16,18,2.30
2014,03,02,16,19,2.30
2014,03,02,16,20,2.30
2014,03,02,16,21,2.30
2014,03,02,16,22,2.30
2014,03,02,16,23,2.30
2014,03,02,16,24,2.30
2014,03,02,16,25,2.30
2014,03,02,16,26,2.30
2014,03,02,16,27,2.30
2014,03,02,16,28,2.30
2014,03,02,16,29,2.30
2014,03,02,16,30,2.30
2014,03,02,16,31,2.30
2014,03,02,16,32,2.30
2014,03,02,16,33,2.30
2014,03,02,16,34,2.30
2014,03,02,16,35,2.30
2014,03,02,16,36,2.30
2014,03,02,16,37,2.30
2014,03,02,16,38,2.30
2014,03,02,16,39,2.30
2014,03,02,16,40,2.30
2014,03,02,16,41,2.30
2014,03,02,16,42,2.30
2014,03,02,16,43,2.30
2014,03,02,16,44,2.30
2014,03,02,16,45,2.30
2014,03,02,16,46,2.30
2014,03,02,16,47,2.30
2014,03,02,16,48,2.30
2014,03,02,16,49,2.30
2014,03,02,16,50,2.30
2014,03,02,16,51,2.30
2014,03,02,16,52,2.30
2014,03,02,16,53,2.30
2014,03,02,16,54,2.30
2014,03,02,16,55,2.30
2014,03,02,16,56,2.30
2014,03,02,16,57,2.30
2014,03,02,16,58,2.30
2014,03,02,16,59,2.30
2014,03,02,17,00,2.30
2014,03,02,17,01,2.30
2014,03,02,17,02,2.30
2014,03,02,17,03,2.30
2014,03,02,17,04,2.30
2014,03,02,17,05,2.30
2014,03,02,17,06,2.30
2014,03,02,17,07,2.30
2014,03,02,17,08,2.30
2014,03,02,17,09,2.30
2014,03,02,17,10,2.30
2014,03,02,17,11,2.30
2014,03,02,17,12,2.30
2014,03,02,17,13,2.30
2014,03,02,17,14,2.30
2014,03,02,17,15,2.30
2014,03,02,17,16,2.30
2014,03,02,17,17,2.30
2014,03,02,17,18,2.30
2014,03,02,17,19,2.30
2014,03,02,17,20,2.30
2014,03,02,17,21,2.30
2014,03,02,17,22,2.30
2014,03,02,17,23,2.30
2014,03,02,17,24,2.30
2014,03,02,17,25,2.30
2014,03,02,17,26,2.30
2014,03,02,17,27,2.30
2014,03,02,17,28,2.30
2014,03,02,17,29,2.20
2014,03,02,17,30,2.20
2014,03,02,17,31,2.20
2014,03,02,17,32,2.20
2014,03,02,17,33,2.20
2014,03,02,17,34,2.20
2014,03,02,17,35,2.20
2014,03,02,17,36,2.20
2014,03,02,17,37,2.20
2014,03,02,17,38,2.20
2014,03,02,17,39,2.20
2014,03,02,17,40,2.20
2014,03,02,17,41,2.20
2014,03,02,17,42,2.20
2014,03,02,17,43,2.10
2014,03,02,17,44,2.10
2014,03,02,17,45,2.10
2014,03,02,17,46,2.10
2014,03,02,17,47,2.10
2014,03,02,17,48,2.10
2014,03,02,17,49,2.10
2014,03,02,17,50,2.10
2014,03,02,17,51,2.10
2014,03,02,17,52,2.10
2014,03,02,17,53,2.10
2014,03,02,17,54,2.10
2014,03,02,17,55,2.10
2014,03,02,17,56,2.10
2014,03,02,17,57,2.10
2014,03,02,17,58,2.10
2014,03,02,17,59,2.10
2014,03,02,18,00,2.10
2014,03,02,18,01,2.10
2014,03,02,18,02,2.00
2014,03,02,18,03,2.00
2014,03,02,18,04,2.00
2014,03,02,18,05,2.00
2014,03,02,18,06,2.00